Location: *
(49.7115°N, 15.0136°E)
Time: 03:38:32
(UTC+00:00)

STARLINK-1063 - Pass Details

Date: 27 February 2020
Orbit: 549 x 550 km, 53.0° (Epoch: 09 April)

Event Time Altitude Azimuth Distance (km) Brightness Sun altitude
Rises 17:57:50 0° 231° (SW) 2,711 7.9 -13.6°
Reaches altitude 10° 18:00:05 10° 227° (SW) 1,821 6.9 -14.0°
Maximum altitude 18:04:08 57° 149° (SSE) 654 3.8 -14.7°
Enters shadow 18:06:14 26° 81° (E) 1,094 4.6 -15.0°
